AV194 Weather Reports


Display with metric or nautical units.
time (UTC)temp
F
wind
direction
speed
MPH
gust
MPH
rain 1hr
in
rain 24hr
in
rain mn
in
humidity
%
barometer
mb
20260902215054 69 98 0.0 7.0 0.00 0.01 0.01 80 1019.8
20260902214554 69 63 2.0 6.0 0.00 0.01 0.01 80 1019.7
20260902214055 69 90 0.0 7.0 0.00 0.01 0.01 80 1019.6
20260902213552 69 92 0.0 7.0 0.00 0.01 0.01 79 1019.6
20260902213051 69 98 0.0 8.0 0.00 0.01 0.01 79 1019.7
20260902212550 69 61 1.0 8.0 0.00 0.01 0.01 79 1019.8
20260902212050 69 343 1.0 8.0 0.00 0.01 0.01 79 1019.7
20260902211552 69 40 2.0 8.0 0.00 0.01 0.01 79 1019.8
20260902211049 69 126 2.0 8.0 0.00 0.01 0.01 78 1019.6
20260902210549 69 111 2.0 7.0 0.00 0.01 0.01 78 1019.4
20260902210049 69 116 2.0 8.0 0.00 0.01 0.01 78 1019.3
20260902205548 69 108 3.0 8.0 0.00 0.01 0.01 77 1019.4
20260902205049 69 92 2.0 7.0 0.00 0.01 0.01 77 1019.6
20260902204628 69 22 1.0 7.0 0.00 0.01 0.01 77 1019.8
20260902204047 69 64 2.0 6.0 0.00 0.01 0.01 76 1019.7
20260902203547 70 39 2.0 6.0 0.00 0.01 0.01 77 1019.8
20260902203051 70 64 0.0 5.0 0.00 0.01 0.01 77 1020.0
20260902202549 70 5 0.0 9.0 0.00 0.01 0.01 76 1019.9
20260902202048 70 80 2.0 8.0 0.00 0.01 0.01 75 1020.0
20260902201547 70 200 2.0 8.0 0.00 0.01 0.01 75 1020.0
20260902201050 70 26 2.0 8.0 0.00 0.01 0.01 75 1019.9
20260902200545 70 15 2.0 6.0 0.00 0.01 0.01 76 1020.0
20260902200045 70 99 1.0 6.0 0.00 0.02 0.01 77 1020.1
20260902195545 70 20 3.0 7.0 0.00 0.02 0.01 76 1020.3
20260902195044 70 104 2.0 7.0 0.00 0.02 0.01 77 1020.4
20260902194543 70 109 2.0 7.0 0.00 0.02 0.01 78 1020.3
20260902194043 70 19 2.0 8.0 0.00 0.02 0.01 77 1020.2
20260902193546 70 42 2.0 9.0 0.00 0.02 0.01 78 1020.3
20260902193143 70 100 2.0 9.0 0.00 0.02 0.01 79 1020.4
20260902192541 70 25 1.0 6.0 0.00 0.02 0.01 78 1020.4
20260902192041 70 47 0.0 6.0 0.00 0.02 0.01 78 1020.5
20260902191542 70 32 2.0 6.0 0.00 0.02 0.01 78 1020.5
20260902191040 70 86 1.0 7.0 0.00 0.02 0.01 78 1020.7
20260902190540 70 5 4.0 7.0 0.00 0.02 0.01 79 1020.6
20260902190041 70 318 0.0 5.0 0.00 0.03 0.01 78 1020.7
20260902185542 70 24 1.0 6.0 0.00 0.03 0.01 79 1020.7
20260902185042 70 84 3.0 7.0 0.00 0.03 0.01 77 1020.7
20260902184540 70 65 0.0 10.0 0.00 0.03 0.01 78 1020.7
20260902184039 70 44 4.0 10.0 0.00 0.03 0.01 77 1020.5
20260902183539 70 102 1.0 7.0 0.00 0.03 0.01 78 1020.5
20260902183053 70 168 2.0 7.0 0.00 0.03 0.01 78 1020.5
20260902182538 70 211 1.0 5.0 0.00 0.03 0.01 78 1020.6
20260902182041 70 9 0.0 5.0 0.00 0.03 0.01 79 1020.5
20260902181540 70 64 0.0 6.0 0.00 0.03 0.01 79 1020.5
20260902181037 70 280 1.0 6.0 0.00 0.03 0.01 78 1020.4
20260902180536 70 347 0.0 8.0 0.00 0.03 0.01 80 1020.4
20260902180043 70 86 1.0 8.0 0.00 0.04 0.01 81 1020.5
20260902175536 70 105 4.0 7.0 0.00 0.04 0.01 83 1020.5
20260902175035 70 331 1.0 4.0 0.00 0.04 0.01 81 1020.6
20260902174534 70 238 0.0 5.0 0.00 0.04 0.01 83 1020.6
20260902174033 70 320 0.0 5.0 0.00 0.04 0.01 83 1020.5
20260902173533 69 34 0.0 7.0 0.00 0.04 0.01 82 1020.5
20260902173036 69 110 2.0 7.0 0.00 0.04 0.01 80 1020.6
20260902172533 69 297 1.0 5.0 0.00 0.04 0.01 83 1020.7
20260902172034 69 30 2.0 5.0 0.00 0.04 0.01 82 1020.6
20260902171533 69 285 1.0 4.0 0.00 0.04 0.01 82 1020.7
20260902171030 69 9 1.0 5.0 0.00 0.04 0.01 82 1020.8
20260902170532 69 344 0.0 6.0 0.00 0.04 0.01 81 1020.9
20260902170034 69 62 1.0 7.0 0.00 0.05 0.01 82 1021.0
20260902165531 69 95 2.0 7.0 0.00 0.05 0.01 82 1020.9
20260902165031 69 305 1.0 5.0 0.00 0.05 0.01 81 1021.0
20260902164533 69 89 0.0 6.0 0.00 0.05 0.01 81 1021.0
20260902164030 69 265 2.0 6.0 0.00 0.05 0.01 82 1020.9
20260902163529 69 94 1.0 6.0 0.00 0.05 0.01 81 1020.8
20260902163040 69 143 1.0 6.0 0.00 0.05 0.01 82 1020.9
20260902162529 69 63 2.0 6.0 0.00 0.05 0.01 82 1021.0
20260902162031 69 40 0.0 5.0 0.00 0.05 0.01 81 1021.1
20260902161529 69 78 2.0 5.0 0.00 0.05 0.01 81 1021.3
20260902161030 69 87 2.0 6.0 0.00 0.05 0.01 81 1021.3
20260902160530 69 93 1.0 6.0 0.00 0.05 0.01 80 1021.4
20260902160029 70 342 1.0 5.0 0.00 0.05 0.01 82 1021.4
20260902155530 69 22 1.0 4.0 0.00 0.05 0.01 83 1021.5
20260902155029 69 89 1.0 5.0 0.00 0.05 0.01 84 1021.6
20260902154528 69 139 0.0 5.0 0.00 0.05 0.01 83 1021.7
20260902154026 69 121 1.0 7.0 0.00 0.05 0.01 84 1021.8
20260902153525 68 132 2.0 7.0 0.00 0.05 0.01 82 1021.8
20260902153025 68 82 1.0 4.0 0.00 0.05 0.01 84 1021.9
20260902152525 68 39 1.0 8.0 0.00 0.05 0.01 82 1021.8
20260902152024 68 99 0.0 8.0 0.00 0.05 0.01 83 1021.8
20260902151524 68 317 2.0 9.0 0.00 0.05 0.01 84 1021.8
20260902151023 68 19 5.0 9.0 0.00 0.05 0.01 84 1021.7
20260902150523 68 18 2.0 7.0 0.00 0.05 0.01 86 1021.8
20260902150021 67 69 2.0 5.0 0.00 0.09 0.01 88 1021.9
20260902145520 66 61 0.0 4.0 0.00 0.09 0.01 87 1021.9
20260902145022 67 82 0.0 1.0 0.00 0.09 0.01 90 1022.0
20260902144518 66 44 0.0 4.0 0.00 0.09 0.01 89 1022.0
20260902144016 66 98 0.0 4.0 0.00 0.09 0.01 90 1021.9
20260902143515 66 278 0.0 2.0 0.00 0.09 0.01 90 1021.8
20260902143016 66 319 0.0 2.0 0.00 0.09 0.01 92 1021.7
20260902142512 65 83 0.0 2.0 0.00 0.09 0.01 92 1021.6
20260902142012 65 51 0.0 4.0 0.00 0.09 0.01 93 1021.7
20260902141511 65 53 0.0 5.0 0.00 0.09 0.01 93 1021.6
20260902141012 65 36 1.0 5.0 0.00 0.09 0.01 93 1021.5
20260902140510 65 66 1.0 5.0 0.00 0.09 0.01 94 1021.5
20260902140009 65 337 1.0 4.0 0.00 0.20 0.01 95 1021.4
20260902135510 65 85 1.0 3.0 0.00 0.20 0.01 95 1021.3
20260902135010 64 167 1.0 6.0 0.00 0.20 0.01 95 1021.2
20260902134507 64 96 0.0 6.0 0.00 0.20 0.01 95 1021.1
20260902134008 64 94 1.0 5.0 0.00 0.20 0.01 96 1021.1
20260902133504 64 26 0.0 6.0 0.00 0.20 0.01 96 1021.0
20260902133010 64 69 2.0 6.0 0.00 0.20 0.01 96 1021.0
20260902132504 64 103 2.0 6.0 0.00 0.20 0.01 96 1021.1
20260902132003 64 134 2.0 5.0 0.00 0.20 0.01 97 1021.0
20260902131503 64 80 1.0 5.0 0.00 0.20 0.01 97 1021.0
20260902131004 63 103 1.0 5.0 0.00 0.20 0.01 97 1021.1
20260902130503 63 112 0.0 4.0 0.00 0.20 0.01 97 1021.3
20260902130002 63 89 0.0 2.0 0.00 0.47 0.01 97 1021.4
20260902125600 63 141 0.0 1.0 0.00 0.47 0.01 97 1021.4
20260902125100 63 128 0.0 4.0 0.00 0.47 0.01 97 1021.3
20260902124602 62 187 0.0 4.0 0.00 0.47 0.01 97 1021.3
20260902124058 62 61 0.0 5.0 0.00 0.47 0.01 97 1021.4
20260902123557 62 51 2.0 6.0 0.00 0.47 0.01 97 1021.3
20260902123100 62 90 1.0 6.0 0.00 0.47 0.01 97 1021.4
20260902122556 62 77 2.0 6.0 0.00 0.47 0.01 97 1021.4
20260902122054 62 91 3.0 6.0 0.00 0.47 0.01 97 1021.4
20260902121554 63 82 0.0 4.0 0.00 0.47 0.01 97 1021.3
20260902121054 62 79 1.0 4.0 0.00 0.47 0.01 97 1021.3
20260902120554 63 76 0.0 2.0 0.00 0.47 0.01 97 1021.2
20260902120052 63 123 0.0 2.0 0.00 0.47 0.01 97 1021.3
20260902115552 62 109 0.0 1.0 0.00 0.47 0.01 97 1021.4
20260902115049 62 159 0.0 1.0 0.00 0.47 0.01 97 1021.5
20260902114548 62 179 0.0 1.0 0.00 0.47 0.01 97 1021.5
20260902114047 62 180 0.0 1.0 0.00 0.47 0.01 97 1021.5
20260902113545 62 180 0.0 1.0 0.00 0.47 0.01 97 1021.5
20260902113144 62 180 0.0 0.0 0.00 0.47 0.01 97 1021.6
20260902112544 62 180 0.0 1.0 0.00 0.47 0.01 97 1021.6
20260902112046 62 180 0.0 1.0 0.00 0.47 0.01 97 1021.5
20260902111542 62 180 0.0 1.0 0.00 0.47 0.01 97 1021.4
20260902111041 62 180 0.0 0.0 0.00 0.47 0.01 97 1021.3
20260902110541 62 180 0.0 0.0 0.00 0.47 0.01 97 1021.3
20260902110049 62 163 0.0 1.0 0.00 0.47 0.01 97 1021.3
20260902105540 62 163 0.0 1.0 0.00 0.47 0.01 97 1021.2
20260902105039 62 163 0.0 1.0 0.00 0.47 0.01 97 1021.1
20260902104553 62 108 0.0 0.0 0.00 0.47 0.01 97 1021.0
20260902104036 62 108 0.0 0.0 0.00 0.47 0.01 97 1020.9
20260902103535 62 108 0.0 0.0 0.00 0.47 0.01 97 1020.7
20260902103050 62 108 0.0 0.0 0.00 0.47 0.01 97 1020.7
20260902102534 62 108 0.0 0.0 0.00 0.47 0.01 97 1020.6
20260902102034 62 108 0.0 0.0 0.00 0.47 0.01 97 1020.6
20260902101533 62 108 0.0 0.0 0.00 0.47 0.01 97 1020.5
20260902101035 62 108 0.0 0.0 0.00 0.47 0.01 97 1020.5
20260902100533 62 108 0.0 0.0 0.00 0.47 0.01 97 1020.6
20260902100036 62 108 0.0 0.0 0.00 0.47 0.01 97 1020.6
20260902095533 62 108 0.0 1.0 0.00 0.47 0.01 97 1020.6
20260902095032 62 108 0.0 1.0 0.00 0.47 0.01 97 1020.5
20260902094535 62 108 0.0 1.0 0.00 0.47 0.01 97 1020.4
20260902094031 62 108 0.0 1.0 0.00 0.47 0.01 97 1020.3
20260902093532 62 83 0.0 2.0 0.00 0.47 0.01 97 1020.2
20260902093030 62 84 0.0 2.0 0.00 0.47 0.01 97 1020.2
20260902092530 62 83 0.0 2.0 0.00 0.47 0.01 97 1020.1
20260902092032 62 66 0.0 0.0 0.00 0.47 0.01 97 1020.3
20260902091530 62 66 0.0 0.0 0.00 0.47 0.01 97 1020.3
20260902091030 62 101 0.0 0.0 0.00 0.47 0.01 97 1020.1
20260902090530 62 101 0.0 0.0 0.00 0.47 0.01 97 1020.1
20260902090037 62 101 0.0 1.0 0.00 0.47 0.01 97 1020.1
20260902085530 62 101 0.0 1.0 0.00 0.47 0.01 97 1020.1
20260902085030 62 96 0.0 1.0 0.00 0.47 0.01 97 1020.2
20260902084537 62 107 0.0 1.0 0.00 0.47 0.01 97 1020.2
20260902084032 62 107 0.0 1.0 0.00 0.47 0.01 97 1020.0
20260902083533 63 107 0.0 2.0 0.00 0.47 0.01 97 1019.9
20260902083029 62 107 0.0 2.0 0.00 0.47 0.01 97 1019.9
20260902082531 62 88 0.0 2.0 0.00 0.47 0.01 97 1019.9
20260902082029 62 39 0.0 2.0 0.00 0.47 0.01 97 1020.0
20260902081528 63 70 0.0 0.0 0.00 0.47 0.01 97 1019.9
20260902081028 62 70 0.0 0.0 0.00 0.47 0.01 97 1020.1
20260902080528 62 70 0.0 0.0 0.00 0.47 0.01 97 1020.1
20260902080029 62 70 0.0 0.0 0.00 0.47 0.01 97 1020.1
20260902075528 62 70 0.0 1.0 0.00 0.47 0.01 97 1020.1
20260902075028 63 72 0.0 2.0 0.00 0.47 0.01 97 1020.3
20260902074528 63 78 0.0 2.0 0.00 0.47 0.01 97 1020.2
20260902074028 63 48 0.0 2.0 0.00 0.47 0.01 97 1020.3
20260902073527 63 48 0.0 2.0 0.00 0.47 0.01 97 1020.3
20260902073028 62 24 0.0 1.0 0.00 0.47 0.01 97 1020.4
20260902072526 62 24 0.0 1.0 0.00 0.47 0.01 97 1020.4
20260902072026 62 17 0.0 1.0 0.01 0.47 0.01 97 1020.4
20260902071526 62 17 0.0 1.0 0.01 0.47 0.01 97 1020.4
20260902071025 62 17 0.0 0.0 0.01 0.47 0.01 97 1020.3
20260902070523 62 5 0.0 0.0 0.01 0.47 0.01 97 1020.1
20260902070025 62 5 0.0 0.0 0.01 0.47 0.01 97 1020.0
20260902065524 62 5 0.0 0.0 0.01 0.47 0.01 97 1020.1
20260902065027 62 5 0.0 0.0 0.01 0.47 0.01 97 1020.0
20260902064524 62 5 0.0 0.0 0.01 0.47 0.01 97 1020.0
20260902064022 62 5 0.0 0.0 0.01 0.47 0.01 97 1020.0
20260902063522 62 5 0.0 0.0 0.01 0.47 0.01 97 1020.0
20260902063043 62 5 0.0 0.0 0.01 0.47 0.01 97 1020.1
20260902062527 62 5 0.0 0.0 0.01 0.47 0.01 97 1020.1
20260902062022 62 5 0.0 0.0 0.00 0.46 0.00 97 1020.0
20260902061526 62 5 0.0 0.0 0.00 0.46 0.00 97 1020.1
20260902061022 62 21 0.0 1.0 0.00 0.46 0.00 97 1020.0
20260902060522 62 21 0.0 1.0 0.00 0.46 0.00 97 1020.0
20260902060029 62 55 0.0 2.0 0.00 0.46 0.00 97 1020.0
20260902055521 62 273 0.0 1.0 0.00 0.46 0.00 97 1020.0
20260902055020 62 273 0.0 0.0 0.00 0.46 0.00 97 1020.0
20260902054523 62 273 0.0 0.0 0.00 0.46 0.00 97 1020.0
20260902054019 62 273 0.0 0.0 0.00 0.46 0.00 97 1019.9
20260902053522 62 273 0.0 0.0 0.00 0.46 0.00 97 1019.9
20260902053018 62 273 0.0 0.0 0.00 0.46 0.00 97 1019.9
20260902052519 62 273 0.0 0.0 0.00 0.46 0.00 97 1019.9
20260902052017 62 273 0.0 0.0 0.00 0.46 0.00 97 1019.9
20260902051517 62 273 0.0 0.0 0.00 0.46 0.00 96 1019.7
20260902051017 62 273 0.0 0.0 0.00 0.46 0.00 96 1019.8
20260902050516 62 273 0.0 0.0 0.00 0.46 0.00 96 1019.7
20260902050021 62 273 0.0 0.0 0.00 0.46 0.00 97 1019.6
20260902045515 62 273 0.0 0.0 0.00 0.46 0.00 96 1019.6
20260902045014 62 273 0.0 0.0 0.00 0.46 0.00 97 1019.4
20260902044517 62 273 0.0 0.0 0.00 0.46 0.00 97 1019.3
20260902044013 62 273 0.0 0.0 0.00 0.46 0.00 97 1019.3
20260902043512 62 273 0.0 0.0 0.00 0.46 0.00 97 1019.1
20260902043011 62 273 0.0 0.0 0.00 0.46 0.00 97 1019.1
20260902042511 62 273 0.0 0.0 0.00 0.46 0.00 97 1019.1
20260902042014 62 273 0.0 0.0 0.00 0.46 0.00 97 1019.1
20260902041510 62 273 0.0 0.0 0.00 0.46 0.00 97 1019.0
20260902041013 62 273 0.0 0.0 0.00 0.46 0.00 97 1019.0
20260902040508 62 273 0.0 0.0 0.00 0.46 0.00 97 1018.9
20260902040007 62 273 0.0 0.0 0.00 0.46 0.46 96 1018.7
20260902035506 62 273 0.0 0.0 0.00 0.46 0.46 96 1018.7
20260902035007 62 273 0.0 0.0 0.00 0.46 0.46 96 1018.6
20260902034607 62 273 0.0 0.0 0.00 0.46 0.46 96 1018.5
20260902034005 62 273 0.0 0.0 0.00 0.46 0.46 96 1018.4
20260902033506 62 273 0.0 0.0 0.00 0.46 0.46 96 1018.4
20260902033006 62 273 0.0 0.0 0.00 0.46 0.46 96 1018.4
20260902032606 62 273 0.0 0.0 0.00 0.46 0.46 96 1018.3
20260902032005 62 273 0.0 0.0 0.00 0.46 0.46 96 1018.3
20260902031522 62 273 0.0 0.0 0.00 0.46 0.46 96 1018.4
20260902031005 62 273 0.0 0.0 0.00 0.46 0.46 96 1018.5
20260902030510 62 273 0.0 0.0 0.00 0.46 0.46 96 1018.5
20260902030004 62 273 0.0 0.0 0.00 0.46 0.46 96 1018.7
20260902025504 62 273 0.0 0.0 0.00 0.46 0.46 96 1018.6
20260902025004 62 273 0.0 0.0 0.00 0.46 0.46 96 1018.6
20260902024504 62 273 0.0 0.0 0.00 0.46 0.46 96 1018.6
20260902024007 62 273 0.0 0.0 0.00 0.46 0.46 96 1018.5
20260902023503 62 273 0.0 0.0 0.00 0.46 0.46 96 1018.5
20260902023013 63 273 0.0 0.0 0.00 0.46 0.46 96 1018.6
20260902022503 63 273 0.0 0.0 0.00 0.46 0.46 96 1018.5
20260902022005 63 273 0.0 0.0 0.00 0.46 0.46 96 1018.6
20260902021505 62 273 0.0 0.0 0.00 0.46 0.46 96 1018.6
20260902021002 62 273 0.0 0.0 0.00 0.46 0.46 96 1018.7
20260902020503 62 273 0.0 0.0 0.00 0.46 0.46 96 1018.8
20260902020001 62 273 0.0 0.0 0.00 0.46 0.46 96 1018.8
20260902015501 62 273 0.0 0.0 0.00 0.46 0.46 96 1018.6
20260902015100 62 273 0.0 0.0 0.00 0.46 0.46 96 1018.6
20260902014600 62 273 0.0 0.0 0.00 0.46 0.46 96 1018.6
20260902014059 62 273 0.0 0.0 0.00 0.46 0.46 96 1018.5
20260902013559 63 273 0.0 0.0 0.00 0.46 0.46 96 1018.5
20260902013110 63 273 0.0 0.0 0.00 0.46 0.46 96 1018.5
20260902012600 63 273 0.0 0.0 0.00 0.46 0.46 96 1018.5
20260902012059 63 273 0.0 0.0 0.00 0.46 0.46 96 1018.5
20260902011700 62 273 0.0 0.0 0.00 0.46 0.46 96 1018.5
20260902011059 63 273 0.0 0.0 0.00 0.46 0.46 96 1018.5
20260902010558 63 273 0.0 0.0 0.00 0.46 0.46 96 1018.4
20260902010104 62 273 0.0 0.0 0.00 0.46 0.46 96 1018.5
20260902005559 63 273 0.0 0.0 0.00 0.46 0.46 96 1018.6
20260902005058 63 273 0.0 0.0 0.00 0.46 0.46 96 1018.5
20260902004557 63 273 0.0 0.0 0.00 0.46 0.46 96 1018.5
20260902004056 63 273 0.0 0.0 0.00 0.46 0.46 96 1018.4
20260902003555 63 273 0.0 0.0 0.00 0.46 0.46 96 1018.3
20260902003055 63 273 0.0 0.0 0.00 0.46 0.46 96 1018.2
20260902002555 63 273 0.0 0.0 0.00 0.46 0.46 96 1018.2
20260902002055 63 273 0.0 0.0 0.00 0.46 0.46 96 1018.1
20260902001555 63 273 0.0 0.0 0.00 0.46 0.46 96 1018.1
20260902001053 63 273 0.0 0.0 0.00 0.46 0.46 96 1017.9
20260902000554 63 273 0.0 0.0 0.00 0.46 0.46 96 1017.8
20260902000054 63 273 0.0 0.0 0.00 0.46 0.46 96 1017.9
20260901235554 63 273 0.0 0.0 0.00 0.46 0.46 96 1017.8
20260901235052 63 273 0.0 0.0 0.00 0.46 0.46 95 1017.9
20260901234602 63 273 0.0 0.0 0.00 0.46 0.46 95 1017.7
20260901234055 63 273 0.0 0.0 0.00 0.46 0.46 95 1017.7
20260901233553 63 273 0.0 0.0 0.00 0.46 0.46 95 1017.8
20260901233052 63 273 0.0 0.0 0.00 0.46 0.46 95 1017.9
20260901232552 63 273 0.0 1.0 0.00 0.46 0.46 95 1018.1
20260901232055 63 273 0.0 1.0 0.00 0.46 0.46 95 1018.1
20260901231557 63 273 0.0 1.0 0.00 0.46 0.46 95 1018.2
20260901231050 63 273 0.0 1.0 0.00 0.46 0.46 95 1018.1
20260901230551 63 273 0.0 1.0 0.00 0.46 0.46 95 1018.0
20260901230103 64 273 0.0 2.0 0.00 0.46 0.46 95 1017.9
20260901225549 64 333 0.0 2.0 0.00 0.46 0.46 95 1017.8
20260901225049 64 252 0.0 2.0 0.00 0.46 0.46 95 1017.8
20260901224550 64 319 0.0 1.0 0.00 0.46 0.46 95 1017.8
20260901224051 64 343 0.0 1.0 0.00 0.46 0.46 95 1017.9
20260901223552 64 33 0.0 2.0 0.00 0.46 0.46 95 1017.8
20260901223048 64 33 0.0 2.0 0.00 0.46 0.46 95 1017.8
20260901222547 64 74 0.0 1.0 0.00 0.46 0.46 95 1017.8
20260901222047 64 74 0.0 1.0 0.00 0.46 0.46 95 1017.7
20260901221559 64 57 0.0 1.0 0.00 0.46 0.46 95 1017.7
20260901221046 65 59 0.0 2.0 0.00 0.46 0.46 95 1017.7
20260901220548 65 59 0.0 2.0 0.00 0.46 0.46 95 1017.6
20260901220045 65 49 0.0 2.0 0.00 0.46 0.46 95 1017.6
20260901215545 65 57 0.0 0.0 0.00 0.46 0.46 95 1017.6